GW0919 Weather Reports


time (UTC)temp
F
wind
direction
speed
knots
gust
knots
rain 1hr
in
rain 24hr
in
rain mn
in
humidity
%
barometer
mb
20260505151543 63 319 3.5 12.2 0.00 0.35 0.35 75 1008.0
20260505124540 63 226 2.6 12.2 0.00 0.35 0.35 76 1008.3
20260505123037 62 295 1.7 10.4 0.00 0.35 0.35 78 1008.5
20260505121537 62 297 3.5 10.4 0.00 0.35 0.35 76 1008.5
20260505120037 64 269 2.6 10.4 0.00 0.35 0.35 74 1008.5
20260505114540 62 244 3.5 9.6 0.00 0.35 0.35 80 1008.4
20260505113042 60 247 1.7 7.8 0.04 0.35 0.35 88 1008.6
20260505111549 58 257 0.9 6.1 0.04 0.35 0.35 91 1008.7
20260505101534 58 265 0.9 8.7 0.00 0.30 0.30 87 1008.6
20260505100041 59 221 0.9 7.0 0.00 0.30 0.30 88 1008.6
20260505094537 58 257 1.7 7.8 0.00 0.30 0.30 89 1008.5
20260505093037 58 300 1.7 8.7 0.00 0.30 0.30 88 1008.3
20260505091550 57 271 3.5 8.7 0.00 0.30 0.30 89 1008.2
20260505090050 57 225 2.6 7.8 0.00 0.30 0.30 91 1008.2
20260505084536 57 243 1.7 6.1 0.00 0.33 0.30 92 1008.1
20260505083043 57 233 0.9 7.0 0.01 0.33 0.30 93 1008.1
20260505081551 56 179 0.9 7.8 0.01 0.33 0.30 94 1008.1
20260505080041 55 257 1.7 7.0 0.01 0.33 0.30 95 1008.1
20260505074543 55 253 3.5 10.4 0.01 0.33 0.29 95 1008.2
20260505073034 56 253 0.9 6.1 0.01 0.33 0.29 97 1008.0
20260505071538 55 103 0.9 5.2 0.01 0.33 0.29 97 1008.1
20260505070036 55 236 0.0 3.5 0.02 0.33 0.29 98 1008.0
20260505064537 55 263 0.9 3.5 0.01 0.32 0.28 98 1008.1
20260505063041 54 0 0.0 2.6 0.01 0.31 0.27 98 1008.1
20260505061551 54 154 0.0 0.9 0.03 0.31 0.27 98 1008.1
20260505060045 54 0 0.0 2.6 0.03 0.30 0.26 98 1008.2
20260505054545 54 240 0.0 1.7 0.04 0.33 0.26 98 1008.1
20260505053036 54 221 0.0 2.6 0.03 0.32 0.25 98 1008.1
20260505051535 54 217 0.0 1.7 0.04 0.30 0.24 98 1008.0
20260505041535 54 224 0.0 1.7 0.06 0.27 0.19 98 1007.9
20260505040039 54 132 0.0 1.7 0.08 0.26 0.18 98 1007.9
20260505034535 54 0 0.0 4.3 0.08 0.29 0.18 98 1007.9
20260505033046 54 0 0.0 2.6 0.06 0.25 0.14 98 1008.0
20260505031536 55 0 0.0 1.7 0.04 0.24 0.13 98 1008.2
20260505030036 55 0 0.0 0.9 0.01 0.21 0.10 98 1008.3
20260505024557 55 0 0.0 0.9 0.00 0.23 0.09 97 1008.4
20260505023038 55 0 0.0 0.9 0.00 0.22 0.08 97 1008.5
20260505021547 55 0 0.0 0.9 0.01 0.22 0.08 97 1008.6
20260505020044 54 0 0.0 0.9 0.03 0.22 0.08 97 1008.8
20260505014535 54 0 0.0 0.0 0.04 0.29 0.08 97 1008.6
20260505013035 54 0 0.0 0.9 0.04 0.29 0.07 97 1008.8
20260505011547 54 0 0.0 0.0 0.04 0.28 0.07 97 1009.0
20260505010039 54 0 0.0 0.9 0.03 0.26 0.05 96 1009.2
20260505004542 55 0 0.0 2.6 0.03 0.25 0.03 96 1009.4
20260505003035 55 218 0.9 3.5 0.03 0.25 0.03 96 1009.4
20260505001535 55 0 0.0 1.7 0.01 0.23 0.01 96 1009.6
20260505000035 55 0 0.0 1.7 0.01 0.23 0.01 95 1009.5
20260504234538 55 0 0.0 2.6 0.00 0.28 0.00 95 1009.7
20260504233048 55 0 0.9 2.6 0.00 0.27 0.00 95 1009.8
20260504231535 56 143 0.0 2.6 0.00 0.27 0.00 95 1009.8
20260504230035 56 143 0.0 0.9 0.00 0.27 0.00 94 1009.9
20260504224534 55 111 0.0 1.7 0.00 0.44 0.00 93 1009.7
20260504223040 55 0 0.0 1.7 0.00 0.44 0.00 93 1009.8
20260504221540 55 0 0.0 0.9 0.00 0.44 0.00 93 1009.8
20260504220047 55 0 0.0 0.9 0.00 0.44 0.00 92 1009.9
20260504214536 56 115 0.0 0.9 0.00 0.46 0.44 92 1010.0
20260504213035 56 0 0.0 2.6 0.00 0.46 0.44 91 1010.0
20260504211531 57 45 0.9 6.1 0.00 0.46 0.44 91 1010.4
20260504210037 57 7 1.7 6.1 0.00 0.46 0.44 93 1010.4
20260504204551 59 0 0.9 2.6 0.00 0.46 0.44 93 1010.4
20260504203037 59 0 0.0 1.7 0.00 0.46 0.44 92 1010.4
20260504201535 60 336 0.9 2.6 0.00 0.46 0.44 91 1010.2
20260504200042 60 0 0.0 0.0 0.00 0.46 0.44 91 1010.2
20260504194541 60 0 0.0 0.9 0.00 0.48 0.44 90 1010.2
20260504193037 61 0 0.0 0.0 0.00 0.48 0.44 88 1009.8
20260504191539 61 0 0.0 0.9 0.00 0.48 0.44 85 1010.1
20260504190038 62 51 0.0 2.6 0.00 0.48 0.44 83 1009.7
20260504184537 62 50 0.0 1.7 0.00 0.49 0.44 86 1009.8
20260504183037 62 0 0.0 1.7 0.00 0.49 0.44 85 1009.8
20260504181542 63 103 0.0 0.9 0.00 0.49 0.44 84 1009.8
20260504180035 63 0 0.0 0.9 0.00 0.49 0.44 81 1009.9
20260504174535 64 0 0.0 1.7 0.00 0.49 0.44 78 1009.9
20260504173036 66 88 0.9 3.5 0.00 0.49 0.44 76 1009.9
20260504171535 65 0 0.0 0.9 0.00 0.49 0.44 79 1009.9